Hilo, HI

4:04 AM HST on June 24, 2017 (GMT -1000)
Hilo International

Weather History for PHTO - July, 2013

Change the Weather History Date:

Thursday, July 11, 2013

  Actual Average Record
Temperature  
Mean Temperature 78 °F 76 °F  
Max Temperature 85 °F 83 °F 87 °F (1974)
Min Temperature 71 °F 69 °F 62 °F (1970)
Degree Days  
Heating Degree Days 0 0  
Month to date heating degree days 0 0  
Since 1 June heating degree days 0 0  
Since 1 July heating degree days 0 0  
Cooling Degree Days 13 11  
Month to date cooling degree days 136 121  
Year to date cooling degree days 1610 1495  
Since 1 June cooling degree days 457 427  
Growing Degree Days 28 (Base 50)    
Moisture  
Dew Point 66 °F    
Average Humidity 70    
Maximum Humidity 84    
Minimum Humidity 55    
Precipitation  
Precipitation 0.04 in 0.34 in 1.34 in (1980)
Month to date precipitation 1.03 3.53  
Year to date precipitation 52.58 62.81  
Snow  
Snow 0.00 in - - ()
Month to date snowfall 0.0  
Since 1 June snowfall 0.0  
Since 1 July snowfall 0.0  
Snow Depth 0.00 in    
Sea Level Pressure  
Sea Level Pressure 30.10 in    
Wind  
Wind Speed 9 mph (SSE)    
Max Wind Speed 18 mph    
Max Gust Speed 24 mph    
Visibility 10 miles    
Events Rain    
T = Trace of Precipitation, MM = Missing Value Source: NWS Daily Summary

Daily Weather History Graph

Daily Weather History Graph

Search for Another Location

Airport or City:

Trip Planner

Search our weather history database for the weather conditions in past years. The results will help you decide how hot, cold, wet, or windy it might be!

Date:

Astronomy

Jul. 11, 2013 Rise Set
Actual Time 5:48 AM HST 7:02 PM HST
Civil Twilight 5:24 AM HST 7:27 PM HST
Nautical Twilight 4:55 AM HST 7:55 PM HST
Astronomical Twilight 4:25 AM HST 8:25 PM HST
Moon 8:45 AM HST (7/11) 9:25 PM HST (7/11)
Length of Visible Light 14h 02m
Length of Day
13h 14m
Waxing Crescent, 12% of the Moon is Illuminated
Jul 11
Waxing Crescent
Jul 15
First Quarter
Jul 22
Full
Jul 29
Last Quarter
Aug 6
New

Hourly Weather History & Observations

Time (HST) Temp. Heat Index Dew Point Humidity Pressure Visibility Wind Dir Wind Speed Gust Speed Precip Events Conditions
12:28 AM 72.0 °F - 64.9 °F 78% 30.14 in 10.0 mi WSW 6.9 mph - N/A   Overcast
12:37 AM 72.0 °F - 64.9 °F 78% 30.13 in 10.0 mi WSW 6.9 mph - N/A   Overcast
12:53 AM 73.0 °F - 64.9 °F 76% 30.13 in 10.0 mi Variable 4.6 mph - N/A   Overcast
1:53 AM 73.0 °F - 66.0 °F 79% 30.11 in 10.0 mi Calm Calm - N/A   Overcast
2:53 AM 72.0 °F - 64.9 °F 78% 30.10 in 10.0 mi SW 5.8 mph - 0.00 in   Overcast
3:15 AM 71.1 °F - 64.9 °F 81% 30.10 in 10.0 mi WSW 4.6 mph - N/A   Mostly Cloudy
3:48 AM 71.6 °F - 64.4 °F 78% 30.09 in 10.0 mi WSW 4.6 mph - N/A   Mostly Cloudy
3:53 AM 72.0 °F - 64.9 °F 78% 30.09 in 10.0 mi West 5.8 mph - N/A   Mostly Cloudy
4:17 AM 72.0 °F - 64.0 °F 76% 30.09 in 10.0 mi West 6.9 mph - N/A   Mostly Cloudy
4:53 AM 71.1 °F - 64.9 °F 81% 30.09 in 10.0 mi West 6.9 mph - N/A   Overcast
5:53 AM 71.1 °F - 66.0 °F 84% 30.09 in 10.0 mi WSW 6.9 mph - N/A   Overcast
6:53 AM 73.0 °F - 66.9 °F 81% 30.11 in 10.0 mi SW 5.8 mph - N/A   Mostly Cloudy
7:53 AM 75.9 °F - 66.0 °F 71% 30.12 in 10.0 mi Variable 3.5 mph - N/A   Mostly Cloudy
8:53 AM 79.0 °F - 66.9 °F 66% 30.11 in 10.0 mi ENE 10.4 mph - 0.00 in   Mostly Cloudy
9:53 AM 82.9 °F 85.4 °F 66.9 °F 58% 30.11 in 10.0 mi NE 12.7 mph - N/A   Scattered Clouds
10:53 AM 79.0 °F - 69.1 °F 72% 30.11 in 10.0 mi NE 15.0 mph - 0.04 in   Mostly Cloudy
11:00 AM 79.0 °F - 69.1 °F 72% 30.11 in 10.0 mi ENE 11.5 mph - N/A   Mostly Cloudy
11:16 AM 79.0 °F - 68.0 °F 69% 30.11 in 10.0 mi NE 12.7 mph - N/A   Mostly Cloudy
11:53 AM 81.0 °F 83.8 °F 68.0 °F 65% 30.10 in 10.0 mi East 13.8 mph 23.0 mph N/A   Scattered Clouds
12:53 PM 81.0 °F 83.3 °F 66.9 °F 62% 30.09 in 10.0 mi ENE 15.0 mph - N/A   Mostly Cloudy
1:53 PM 82.9 °F 84.6 °F 64.9 °F 54% 30.08 in 10.0 mi East 15.0 mph - N/A   Scattered Clouds
2:53 PM 82.9 °F 85.0 °F 66.0 °F 56% 30.07 in 10.0 mi NE 13.8 mph - N/A   Mostly Cloudy
3:53 PM 82.9 °F 84.6 °F 64.9 °F 54% 30.06 in 10.0 mi NE 13.8 mph - N/A   Mostly Cloudy
4:53 PM 80.1 °F 82.1 °F 66.0 °F 62% 30.05 in 10.0 mi East 12.7 mph - N/A   Scattered Clouds
5:53 PM 79.0 °F - 64.9 °F 62% 30.06 in 10.0 mi ENE 10.4 mph - N/A   Scattered Clouds
6:53 PM 77.0 °F - 66.9 °F 71% 30.07 in 10.0 mi East 5.8 mph - N/A   Mostly Cloudy
7:53 PM 75.9 °F - 66.0 °F 71% 30.08 in 10.0 mi ESE 5.8 mph - N/A   Overcast
8:53 PM 73.9 °F - 68.0 °F 82% 30.09 in 10.0 mi SE 3.5 mph - 0.04 in   Overcast
9:53 PM 73.0 °F - 69.1 °F 87% 30.10 in 10.0 mi SW 4.6 mph - N/A   Overcast
10:53 PM 73.0 °F - 68.0 °F 84% 30.10 in 3.0 mi South 4.6 mph - 0.03 in Rain Heavy Rain
11:17 PM 72.0 °F - 68.0 °F 87% 30.10 in 10.0 mi WSW 6.9 mph - 0.04 in   Overcast
11:43 PM 72.0 °F - 68.0 °F 87% 30.10 in 6.0 mi West 8.1 mph - 0.05 in Rain Rain
11:53 PM 71.1 °F - 66.9 °F 87% 30.09 in 6.0 mi WSW 8.1 mph - 0.07 in Rain Light Rain